Home   Weather   Ancona   Past weeks

Flag for Italy Past Weather in Ancona, Italy — Yesterday and Last 2 Weeks

Now
39 °F

Passing clouds.


Feels Like: 37 °F
Forecast: 45 / 50 °F
Wind: 3 mph from South

Location: Falconara

Current Time: Jan 21, 2017 at 5:19:02 am

Latest Report: Jan 21, 2017 at 3:50 am


Visibility: N/A

Pressure: 30.45 "Hg

Humidity: 70%

Dew Point: 30 °F

Location of AnconaLocation

Past Weather in Ancona — Graph

°F

Ancona Temperature Yesterday

Maximum temperature yesterday: 41 °F (at 1:50 pm)
Minimum temperature yesterday: 37 °F (at 7:50 am)
Average temperature yesterday: 39 °F

High & Low Weather Summary for the Past Weeks

 TemperatureHumidityPressure
High59 °F (Jan 13, 7:50 am)93% (Jan 12, 5:50 am)30.51 "Hg (Jan 12, 5:50 am)
Low23 °F (Jan 8, 2:50 am)29% (Jan 14, 3:50 pm)29.45 "Hg (Jan 13, 3:50 pm)
Average38 °F70%30.07 "Hg
* Reported Jan 6 3:50 am — Jan 21 3:50 am, Ancona, Weather by CustomWeather, © 2017

Note: Actual official high and low records may vary slightly from our data, if they occured in-between our weather recording intervals... More about our weather records

Advertising

Ancona Weather History for the Previous 24 Hours

Scroll right to see more
 ConditionsComfort  
Time TempWeatherWind HumidityBarometerVisibility
3:50 am
Sat, Jan 21
39 °FPassing clouds.3 mph70%30.45 "HgN/A
2:50 am37 °FPassing clouds.3 mph75%30.45 "HgN/A
1:50 am39 °FPassing clouds.5 mph70%30.45 "HgN/A
12:50 am39 °FPassing clouds.3 mph70%30.45 "HgN/A
11:50 pm
Fri, Jan 20
39 °FPassing clouds.5 mph70%30.45 "HgN/A
10:50 pm39 °FPassing clouds.3 mph70%30.48 "HgN/A
9:50 pm39 °FPassing clouds.6 mph70%30.45 "HgN/A
8:50 pm39 °FPassing clouds.5 mph70%30.45 "HgN/A
7:50 pm37 °FPassing clouds.5 mph75%30.45 "HgN/A
6:50 pm37 °FPassing clouds.6 mph75%30.45 "HgN/A
5:50 pm39 °FPassing clouds.5 mph70%30.45 "HgN/A
4:50 pm39 °FPartly sunny.6 mph70%30.45 "HgN/A
3:50 pm39 °FBroken clouds.8 mph70%30.45 "HgN/A
2:50 pm41 °FScattered clouds.9 mph66%30.45 "HgN/A
1:50 pm41 °FScattered clouds.12 mph66%30.45 "HgN/A
12:50 pm39 °FScattered clouds.8 mph70%30.48 "HgN/A
11:50 am39 °FPartly sunny.6 mph70%30.48 "HgN/A
10:50 am37 °FPartly sunny.6 mph75%30.51 "HgN/A
9:50 am37 °FPartly sunny.5 mph75%30.48 "HgN/A
8:50 am37 °FPartly sunny.5 mph75%30.48 "HgN/A
7:50 am37 °FPartly sunny.5 mph75%30.45 "HgN/A
6:50 am39 °FPassing clouds.6 mph70%30.45 "HgN/A
5:50 am39 °FPassing clouds.6 mph70%30.42 "HgN/A
Weather by CustomWeather, © 2017

See weather overviewHow to use our weather pages